Location: Csohesd
(46.2500°N, 22.6167°E)
Time: 06:13:46
(UTC+00:00)

Cosmos 2360 Rocket - Pass Details

Date: 21 October 2021
Orbit: 832 x 846 km, 71.0° (Epoch: 04 December)

Event Time Altitude Azimuth Distance (km) Brightness Sun altitude
Rises 17:18:29 0° 182° (S) 3,371 5.3 -19.0°
Reaches altitude 10° 17:21:02 10° 175° (S) 2,444 4.5 -19.4°
Maximum altitude 17:26:14 41° 107° (ESE) 1,206 2.5 -20.3°
Enters shadow 17:26:40 40° 95° (E) 1,220 2.5 -20.4°
